Location: Newark
(40.4667°N, 5.6000°W)
Time: 14:56:21
(UTC+00:00)

Courier 1B Rocket - Visible Passes

Search period start: 15 November 2019 00:00
Search period end: 25 November 2019 00:00
Orbit: 920 x 1202 km, 28.2° (Epoch: 14 November)

Date Brightness Start Highest point End Pass type
(mag) Time Alt. Az. Time Alt. Az. Time Alt. Az.
15 Nov 6.5 18:30:51 10° WSW 18:37:32 33° S 18:42:55 15° SE visible
15 Nov 6.8 20:24:09 10° WSW 20:29:17 26° SSW 20:29:17 26° SSW visible
16 Nov 6.7 17:30:01 10° SW 17:36:29 31° S 17:43:09 10° ESE visible
16 Nov 6.6 19:22:55 10° WSW 19:29:28 31° S 19:32:04 25° SSE visible
16 Nov 7.7 21:17:14 10° WSW 21:18:27 13° SW 21:18:27 13° SW visible
17 Nov 6.6 18:21:51 10° WSW 18:28:26 32° S 18:34:55 11° SE visible
17 Nov 6.9 20:15:31 10° WSW 20:21:18 23° SSW 20:21:18 23° SSW visible
18 Nov 6.7 17:20:58 10° WSW 17:27:24 32° S 17:34:06 10° ESE visible
18 Nov 6.8 19:14:09 10° WSW 19:20:21 27° SSW 19:24:13 18° SSE visible
18 Nov 7.7 21:09:26 10° SW 21:10:36 12° SW 21:10:36 12° SW visible
19 Nov 6.8 18:13:01 10° WSW 18:19:21 30° S 18:25:54 10° SE visible
19 Nov 7.2 20:07:13 10° WSW 20:12:09 18° SSW 20:13:35 17° S visible
20 Nov 7.1 19:05:36 10° WSW 19:11:13 23° SSW 19:16:40 11° SSE visible
21 Nov 7.0 18:04:19 10° WSW 18:10:15 26° SSW 18:16:24 10° SE visible
21 Nov 7.6 19:59:34 10° SW 20:02:57 13° SSW 20:06:16 10° S visible
22 Nov 7.5 18:57:23 10° WSW 19:02:04 18° SSW 19:06:50 10° SSE visible
23 Nov 7.4 17:55:51 10° WSW 18:01:09 22° SSW 18:06:38 10° SSE visible
24 Nov 7.7 18:50:00 10° SW 18:52:54 13° SSW 18:55:51 10° S visible
